User: anonymous   Login
Location: Unspecified
(0.0000°N, 0.0000°E)
Time: 17:28:03
(UTC+02:00)
Language:

ASC 2 Rocket - Orbit

View from above orbital plane
View from above orbital plane
View from above satellite
View from above satellite

Ground track
Ground track

The orbit data is extracted from the following two-line orbital elements,

1 21228U 91028B   18224.43783586 +.00000161 +00000-0 +15783-5 0  9993
2 21228 023.9926 299.8714 1142938 141.1725 227.6671 12.53362953250442
Epoch (UTC): 12 August 2018 10:30:29
Eccentricity: 0.1142938
inclination: 23.9926°
perigee height: 556 km
apogee height: 2345 km
right ascension of ascending node: 299.8714°
argument of perigee: 141.1725°
revolutions per day: 12.53362953
mean anomaly at epoch: 227.6671°
orbit number at epoch: 25044

The dashed part of the orbit path shows where the satellite is in the earth's shadow,  

DLR